Majkop, Russia

12:54 PM MSK on December 08, 2016 (GMT +0300)
Maykop

Weather History for URKM - February, 2013

Change the Weather History Date:

Tuesday, February 12, 2013

  Actual Average Record
Temperature  
Mean Temperature 42 °F -  
Max Temperature 48 °F - - ()
Min Temperature 35 °F - - ()
Degree Days  
Heating Degree Days 24    
Moisture  
Dew Point 39 °F    
Average Humidity 84    
Maximum Humidity 93    
Minimum Humidity 69    
Precipitation  
Precipitation 0.02 in - - ()
Sea Level Pressure  
Sea Level Pressure 29.95 in    
Wind  
Wind Speed 3 mph ()    
Max Wind Speed 7 mph    
Max Gust Speed -    
Visibility 7.3 miles    
Events Rain    
T = Trace of Precipitation, MM = Missing Value Source: Averaged Metar Reports

Daily Weather History Graph

Daily Weather History Graph

Search for Another Location

Airport or City:

Trip Planner

Search our weather history database for the weather conditions in past years. The results will help you decide how hot, cold, wet, or windy it might be!

Date:

Astronomy

Feb. 12, 2013 Rise Set
Actual Time 8:24 AM MSK 6:44 PM MSK
Civil Twilight 7:54 AM MSK 7:14 PM MSK
Nautical Twilight 7:19 AM MSK 7:48 PM MSK
Astronomical Twilight 6:46 AM MSK 8:22 PM MSK
Moon 9:02 AM MSK (2/12) 9:31 PM MSK (2/12)
Length of Visible Light 11h 19m
Length of Day
10h 19m
Waxing Crescent, 5% of the Moon is Illuminated
Feb 12
Waxing Crescent
Feb 18
First Quarter
Feb 26
Full
Mar 5
Last Quarter
Mar 11
New

Hourly Weather History & Observations

Time (MSK) Temp. Windchill Dew Point Humidity Pressure Visibility Wind Dir Wind Speed Gust Speed Precip Events Conditions
12:00 AM 39.2 °F - 35.6 °F 87% 29.77 in - South 2.2 mph - N/A   Clear
1:00 AM 41 °F - 35 °F 72% 29.81 in 12 mi SE 4.5 mph - -   Mostly Cloudy
1:00 AM 41.0 °F 38.1 °F 35.6 °F 81% 29.77 in - SE 4.5 mph - N/A   Clear
3:00 AM 42.8 °F 38.7 °F 35.6 °F 76% 29.77 in - South 6.7 mph - N/A   Clear
4:00 AM 42 °F - 35 °F 69% 29.82 in 12 mi SW 2.2 mph - -   Overcast
4:00 AM 42.8 °F 38.7 °F 35.6 °F 76% 29.80 in - WSW 6.7 mph - N/A   Clear
5:00 AM 42.8 °F 38.7 °F 35.6 °F 76% 29.80 in - WNW 6.7 mph - N/A   Clear
6:00 AM 42.8 °F 40.2 °F 35.6 °F 76% 29.80 in - NNW 4.5 mph - N/A   Clear
7:00 AM 39 °F - 36 °F 85% 29.87 in 12 mi West 2.2 mph - -   Partly Cloudy
7:00 AM 41.0 °F 38.1 °F 35.6 °F 81% 29.83 in - WNW 4.5 mph - N/A   Clear
8:00 AM 37.4 °F - 35.6 °F 93% 29.86 in - Calm Calm - N/A   Clear
9:00 AM 37.4 °F 33.9 °F 35.6 °F 93% 29.86 in - SSW 4.5 mph - N/A   Clear
10:00 AM 38 °F - 36 °F 91% 29.95 in 2 mi WSW 2.2 mph - -   Mist
10:00 AM 39.2 °F - 37.4 °F 93% 29.89 in 3.1 mi West 2.2 mph - N/A   Overcast
11:00 AM 42.8 °F - 39.2 °F 87% 29.92 in 6.2 mi Calm Calm - N/A   Overcast
12:00 PM 44.6 °F 42.3 °F 41.0 °F 87% 29.95 in - NW 4.5 mph - N/A   Clear
1:00 PM 47 °F - 40 °F 70% 30.00 in 12 mi NW 2.2 mph - -   Overcast
1:00 PM 46.4 °F - 41.0 °F 81% 29.95 in - NW 2.2 mph - N/A   Clear
2:00 PM 48.2 °F - 41.0 °F 76% 29.98 in - NNW 4.5 mph - N/A   Clear
3:00 PM 48.2 °F - 41.0 °F 76% 29.98 in 6.2 mi NNW 4.5 mph - N/A   Overcast
4:00 PM 47 °F - 43 °F 79% 30.05 in 6 mi North 2.2 mph - - Rain Light Rain Showers
4:00 PM 46.4 °F 44.4 °F 44.6 °F 93% 30.01 in 6.2 mi North 4.5 mph - N/A Rain Light Rain Showers
5:00 PM 48.2 °F - 44.6 °F 87% 30.04 in 6.2 mi WNW 2.2 mph - N/A   Overcast
6:00 PM 46.4 °F 44.4 °F 42.8 °F 87% 30.06 in 6.2 mi NNW 4.5 mph - N/A   Overcast
7:00 PM 45 °F - 42 °F 86% 30.11 in 12 mi NNW 2.2 mph - -   Partly Cloudy
7:00 PM 44.6 °F - 41.0 °F 87% 30.06 in 6.2 mi NNW 2.2 mph - N/A   Mostly Cloudy
8:00 PM 42.8 °F 40.2 °F 41.0 °F 93% 30.09 in 6.2 mi NW 4.5 mph - N/A   Mostly Cloudy
9:00 PM 42.8 °F - 41.0 °F 93% 30.12 in 6.2 mi Calm Calm - N/A   Overcast
10:00 PM 44 °F - 41 °F 86% 30.17 in 6 mi NW 4.5 mph - -   Partly Cloudy
10:00 PM 42.8 °F 38.7 °F 41.0 °F 93% 30.12 in 6.2 mi NNW 6.7 mph - N/A   Overcast
11:00 PM 42.8 °F 40.2 °F 41.0 °F 93% 30.12 in 6.2 mi WNW 4.5 mph - N/A   Overcast